Weather in Andoany

Madagascar     13°23′59″S   48°16′59″E
temp.,
°C
wind,
m/s
gust,
m/s
humid.,
%
clouds,
%
prec.,
mm/h
press.,
hPa
HPBL,
m
20 april, tue
tue2000:00+27s4480100 0.0 1013302
03:00+26s447950 0.0 1011287
06:00+26s33818 0.0 1011252
09:00+26se33775 0.4 1013196
12:00+27n22723 0.3 1011171
15:00+28nw337460 0.4 1010337
18:00+28wnw2372100 3.9 1011200
21:00+28ssw1171100 5.4 1012316
21 april, wed
wed2100:00+27sse3378100 0.6 1012270
03:00+26ene5586100 3.1 1011464
06:00+26e448499 0.3 1012418
09:00+26sse2281100 0.4 1013323
12:00+26ese1176100 0.0 1012339
15:00+27s1175100 0.0 1011394
18:00+27e2275100 0.7 1012391
21:00+26e4480100 2.0 1014366
22 april, thu
thu2200:00+26sse5680100 0.1 1012329
03:00+26e2275100 0.1 1011322
06:00+26se227671 0.0 1012319
09:00+26ne1173100 0.0 1014307
12:00+27nne3271100 0.0 1012401
15:00+27w1167100 0.0 1010155
18:00+27wsw4479100 1.6 1012248
21:00+27wsw227698 2.1 1013254
23 april, fri
fri2300:00+27sse3279100 0.6 1013302
03:00+26sse3383100 0.8 1011230
06:00+26sse3379100 0.1 1012238
09:00+26se227788 0.1 1013239
12:00+27nne3274100 0.0 1012250
15:00+28nw2373100 0.4 1010505
18:00+27wsw3377100 2.6 1012244
21:00+28sw1171100 5.9 1013202
24 april, sat
sat2400:00+26s33785 2.5 1013189
03:00+26sse338192 3.3 1012298
06:00+26se337937 0.0 1013266
09:00+26se227696 0.0 1014253
12:00+27ene117060 0.0 1011200
15:00+28wnw557071 0.1 1010339
18:00+28w557437 1.3 1011332
21:00+28sw2271100 2.9 1013284